Location: Unspecified
(0.0000°N, 0.0000°E)
Time: 22:10:48
(UTC+00:00)

DIWATA 2B (PO-101) - Visible Passes

Search period start: 20 June 2025 00:00
Search period end: 30 June 2025 00:00
Orbit: 566 x 577 km, 98.1° (Epoch: 20 June)

Date Brightness Start Highest point End Pass type
(mag) Time Alt. Az. Time Alt. Az. Time Alt. Az.
20 Jun ? 04:54:05 10° SSE 04:57:59 45° ENE 05:01:53 10° N visible
21 Jun ? 04:56:28 10° SSE 05:00:24 49° ENE 05:04:21 10° N visible
22 Jun ? 04:58:51 10° SSE 05:02:50 54° ENE 05:06:48 10° N visible
23 Jun ? 05:01:14 10° SSE 05:05:15 58° ENE 05:09:15 10° N visible
24 Jun ? 05:03:37 10° SSE 05:07:40 64° ENE 05:11:42 10° N visible
25 Jun ? 05:06:02 10° SSE 05:10:05 69° ENE 05:14:08 10° N visible
26 Jun ? 05:08:25 10° SSE 05:12:30 75° ENE 05:16:34 10° N visible
27 Jun ? 05:10:49 10° SSE 05:14:54 82° ENE 05:18:59 10° N visible
28 Jun ? 05:13:13 10° SSE 05:17:18 88° E 05:21:23 10° N visible
29 Jun ? 05:15:38 10° S 05:19:43 85° W 05:23:48 10° NNW visible
